Tracking 18673 objects as of 25-June-2017
HD Live streaming from Space Station
objects crossing your sky now

OPS 3367 A

Track OPS 3367 A now!
10-day predictions
OPS 3367 A is classified as:


NORAD ID: 734
Int'l Code: 1964-002B
Perigee: 793.0 km
Apogee: 812.8 km
Inclination: 99.0 °
Period: 100.8 minutes
Semi major axis: 7173 km
RCS: 0.3359 m2 (medium)
Launch date: January 19, 1964
Source: United States (US)
Launch site: AIR FORCE WESTERN TEST RANGE (AFWTR)
Your satellite tracking list
Your tracking list is empty





NASA's NSSDC Master Catalog

Two Line Element Set (TLE):
1   734U 64002B   17175.36877898 -.00000025 +00000-0 +89545-5 0  9997
2   734 098.9958 294.5701 0013847 322.1138 037.9067 14.28799352780338
Source of the keplerian elements: AFSPC